www.pogodaiklimat.ru

Погода и климат >> Архив погоды >> Индия >> Гуджарат >> Бхудж


ПОГОДА в Бхудже

  • Прогноз погоды в Бхудже
  • Монитор погоды в Бхудже

АРХИВ ПОГОДЫ в Бхудже

Время (UTC), дата Ветер
(напр.,м/с)
 
Видим.   Явления Облачность Т
(С)
Тd
(С)
f
(%)
Тe
(С)
Тes
(С)
Комфортность P
(гПа)
Po
(гПа)
Тmin
(С)
Tmax
(С)
R
(мм)
R24
(мм)
S
(см)
12 11.06 нст 3 4000 м 4/0
[Ac trans Ci fib]
+37.2 +23.9 47 +49 +52 опасность
перегрева
996.4 987.7 +39.6
15 11.06 ЮЗ 1 4000 м 1/0
[Ac trans]
+32.2 +27.0 74 +50 +50 опасность
перегрева
998.2 989.3
18 11.06 ЮЗ 1 4000 м ясно +29.6 +26.5 83 +45 +45 опасность
перегрева
998.9 989.9
21 11.06 ЮЗ 1 4000 м ясно +28.6 +26.4 88 +44 +44 опасность
перегрева
997.8 988.8
00 12.06 штиль 0 4000 м ясно +28.6 +26.9 91 +45 +45 опасность
перегрева
997.7 988.7
03 12.06 З 1 4000 м 5/5 600 м
[Sc]
+29.8 +28.2 91 +50 +53 опасность
перегрева
998.8 989.8 +27.5
06 12.06 ЮЗ 1 4000 м 3/0
[Ci fib]
+36.8 +26.9 57 +54 +78 опасность
перегрева
998.3 989.5
09 12.06 нст 1 4000 м 6/1 600 м
[Sc Ci fib]
+40.8 +22.1 34 +48 +66 опасность
перегрева
995.9 987.3
12 12.06 нст 1 4000 м 8/5 600 м
[Cu Sc Ac trans]
+40.4 +20.5 32 +46 +48 опасность
перегрева
994.6 986.0 +41.8
15 12.06 ЮЗ 2 4000 м 8/5 600 м
[Cu Sc Ac trans]
+31.4 +28.1 83 +52 +52 опасность
перегрева
996.8 987.9 4
18 12.06 ЮЗ 1 4000 м 6/6 600 м
[]
+31.0 +28.6 87 +53 +53 опасность
перегрева
997.7 988.8 0.4
21 12.06 ЮЗ 1 4000 м 9/5 540 м
[Frnb Ac trans]
+29.8 +25.3 77 +44 +44 опасность
перегрева
997.7 988.7 4
00 13.06 В 3 4000 м 9/5 540 м
[Frnb Ac trans]
+29.0 +26.5 86 +44 +44 опасность
перегрева
997.7 988.7 4
03 13.06 В 6 4000 м 5/0
[Ac trans Ci fib]
+30.6 +27.0 81 +48 +50 опасность
перегрева
998.7 989.8 +27.8
06 13.06 В 8 4000 м 6/5 600 м
[Sc Ac trans Ci fib]
+33.4 +25.6 64 +48 +50 опасность
перегрева
998.2 989.3
09 13.06 В 8 4000 м 8/4 300 м
[St Ac trans Ci fib]
+34.8 +24.8 56 +48 +49 опасность
перегрева
997.2 988.4
12 13.06 В 5 4000 м 8/6 600 м
[Cu Sc Ac trans]
+33.6 +25.2 62 +48 +49 опасность
перегрева
995.6 986.8 +35.8
15 13.06 В 5 4000 м 9/5 600 м
[Sc Ac trans]
+30.6 +25.8 76 +46 +46 опасность
перегрева
997.1 988.2
18 13.06 В 3 4000 м 8/6 450 м
[St Ac trans]
+29.2 +26.1 83 +44 +44 опасность
перегрева
999.0 990.0
21 13.06 В 4 4000 м 5/4 600 м
[Sc Ac trans]
+28.6 +24.9 80 +41 +41 опасность
перегрева
997.2 988.2
00 14.06 В 4 4000 м 9/6 450 м
[St Ac trans]
+28.2 +25.1 83 +41 +41 опасность
перегрева
996.3 987.3
03 14.06 В 3 4000 м 9/9 600 м
[Cu Sc]
+28.6 +26.1 86 +43 +44 опасность
перегрева
998.4 989.4 +27.2
06 14.06 СВ 5 4000 м 9/9 600 м
[Cu Sc]
+31.0 +24.4 68 +43 +44 опасность
перегрева
998.6 989.7
09 14.06 В 5 4000 м 9/6 300 м
[St Ac trans]
+32.0 +26.1 71 +48 +50 опасность
перегрева
997.4 988.5
12 14.06 В 4 4000 м 8/6 300 м
[Cu Sc Ac trans]
+32.0 +26.4 72 +48 +49 опасность
перегрева
996.8 987.9 +33.2
15 14.06 В 3 4000 м 5/5 600 м
[Sc]
+30.0 +24.6 73 +43 +43 опасность
перегрева
998.9 989.9
18 14.06 В 3 4000 м 6/6 600 м
[Sc]
+30.0 +24.9 74 +43 +43 опасность
перегрева
1000.2 991.2
21 14.06 В 4 4000 м 4/4 600 м
[Sc]
+29.0 +26.5 86 +44 +44 опасность
перегрева
999.4 990.4
00 15.06 В 3 4000 м 5/5 600 м
[Sc]
+28.4 +26.4 89 +43 +43 опасность
перегрева
998.2 989.2
03 15.06 В 5 4000 м 8/6 300 м
[St Ac trans]
+30.0 +27.5 86 +48 +49 опасность
перегрева
999.9 990.9 +27.5
06 15.06 В 5 4000 м в посл. час морось 8/6 300 м
[St Ac trans]
+31.6 +26.3 74 +48 +51 опасность
перегрева
1001.1 992.2 0.0
09 15.06 Ю 6 4000 м 6/3 600 м
[Sc Ac trans]
+34.2 +25.2 60 +48 +53 опасность
перегрева
999.6 990.7 0.0
12 15.06 Ю 5 4000 м 4/1 300 м
[St Ac trans Ci fib]
+33.6 +24.5 59 +46 +48 опасность
перегрева
998.2 989.3 +34.8
15 15.06 Ю 4 4000 м 4/0
[Ac trans Ci fib]
+30.2 +25.1 74 +44 +44 опасность
перегрева
1000.0 991.0 0.0
18 15.06 ЮВ 2 4000 м ясно +29.0 +25.6 82 +43 +43 опасность
перегрева
1002.7 993.7 0.0
21 15.06 ЮВ 4 4000 м ясно +28.4 +26.2 88 +43 +43 опасность
перегрева
1000.1 991.1
00 16.06 Ю 5 4000 м 5/5 450 м
[St Ac trans]
+28.4 +26.2 88 +43 +43 опасность
перегрева
1000.1 991.1 0.0
03 16.06 Ю 6 2000 м 5/5 300 м
[St]
+30.2 +27.2 84 +48 +49 опасность
перегрева
1001.7 992.7 +27.3 0.4
06 16.06 Ю 6 2000 м 6/5 300 м
[St]
+34.2 +25.8 62 +50 +54 опасность
перегрева
1002.3 993.4
09 16.06 Ю 6 4000 м 6/5 300 м
[St Ac trans]
+35.4 +24.7 54 +48 +51 опасность
перегрева
1001.3 992.5
12 16.06 Ю 5 4000 м 6/6 600 м
[Cu Sc]
+33.8 +24.1 57 +46 +47 опасность
перегрева
1000.8 991.9 +36.0
15 16.06 Ю 5 4000 м 6/5 450 м
[St Ac trans]
+31.0 +26.3 76 +47 +47 опасность
перегрева
1002.1 993.1
18 16.06 Ю 5 4000 м 4/4 540 м
[Frnb]
+29.6 +26.5 83 +45 +45 опасность
перегрева
1002.9 993.9
21 16.06 Ю 5 4000 м 4/4 540 м
[Frnb]
+29.0 +26.5 86 +44 +44 опасность
перегрева
1001.6 992.6
00 17.06 Ю 5 4000 м 6/5 450 м
[St Ac trans]
+28.8 +26.6 88 +45 +45 опасность
перегрева
1001.4 992.4
03 17.06 Ю 5 2000 м 10/10 300 м
[Frnb]
+30.2 +26.5 81 +47 +47 опасность
перегрева
1002.2 993.2 +27.8
06 17.06 Ю 5 2000 м 10/10 300 м
[Frnb]
+27.2 +26.4 95 +41 +41 опасность
перегрева
1002.9 993.8 6
09 17.06 Ю 5 2000 м 10/10 300 м
[Frnb]
+28.4 +27.0 92 +45 +45 опасность
перегрева
1001.2 992.2 6
12 17.06 Ю 4 200 м 6/6 300 м
[St Ac trans]
+29.8 +27.0 85 +47 +48 опасность
перегрева
999.2 990.2 +32.0 8
15 17.06 Ю 4 2000 м 8/6 300 м
[Frnb Ac trans]
+28.2 +26.2 89 +43 +43 опасность
перегрева
999.2 990.2 8
18 17.06 Ю 5 2000 м 6/6 300 м
[Frnb]
+28.0 +26.3 91 +43 +43 опасность
перегрева
1000.0 991.0 8
21 17.06 Ю 3 2000 м 6/6 300 м
[Frnb]
+27.2 +25.8 92 +40 +40 очень
душно
998.2 989.2 8
00 18.06 Ю 3 2000 м 9/6 450 м
[St Ac trans]
+27.2 +26.1 94 +41 +41 опасность
перегрева
997.3 988.3
03 18.06 штиль 0 4000 м 10/10 300 м
[St Ac trans]
+28.8 +27.7 94 +47 +47 опасность
перегрева
998.2 989.2 +26.2
06 18.06 нст 1 4000 м 8/8 600 м
[Sc diur, vesp As trans]
+32.2 +27.0 74 +50 +55 опасность
перегрева
999.6 990.7 1
09 18.06 З 3 4000 м 8/6 600 м
[Cu Sc Ac trans]
+35.4 +23.4 50 +46 +51 опасность
перегрева
997.4 988.6 1

 

Местоположение метеостанции Бхудж (Гуджарат, Индия): широта 23.25 долгота 69.67 высота над уровнем моря 80 м.

В архиве по умолчанию представлена погода в Бхудже за последнюю неделю. Архивные данные за месяц целиком и за предыдущие месяцы, начиная с января 2011 года, Вы можете получить, выбрав интересующий диапазон дат из раскрывающегося списка и нажав кнопку "Ввод!".


*Определитесь, кто Вы:
робот инопланетянин человек

Внимание! Время в таблицах - всемирное. Для получения местного времени необходимо прибавить поправку, которая равна 5.5 ч.

Смотрите также архив погоды в соседних городах и на ближайших метеорологических станциях:

Погода в Кандле (Гуджарат, Индия) (47 км)
Погода в Нью-Кандле (Гуджарат, Индия) (63 км)
Погода в Мандви (Гуджарат, Индия) (63 км)
Погода в Налии (Гуджарат, Индия) (84 км)
Погода в Охе (Гуджарат, Индия) (103 км)
Погода в Дварке (Гуджарат, Индия) (115 км)
Погода в Раджкоте (Гуджарат, Индия) (155 км)
Погода в Митхи (Пакистан) (166 км)
Погода в Бадине (Пакистан) (172 км)
Погода в Порбандаре (Гуджарат, Индия) (178 км)

Пояснения к столбцам:

Ветер - указаны скорость ветра в м/с - средняя за 10 мин, порывы в срок и между сроками (в фигурных скобках) и направление, откуда дует ветер: С - северный, СВ - северо-восточный, В - восточный, ЮВ - юго-восточный, Ю - южный, ЮЗ - юго-западный, З - западный, СЗ - северо-западный.
Видимость - горизонтальная дальность видимости в метрах или километрах. При видимости от 1 до 10 км при отсутствии осадков обычно наблюдается дымка, при ухудшении видимости до 1 км и менее - туман. В сухую погоду видимость может ухудшаться дымом, пылью или мглою.
Явления - указаны атмосферные явления, наблюдавшиеся в срок или в последний час перед сроком; фигурными скобками обозначены явления, наблюдавшиеся между сроками (за 1-3 часа до срока); квадратными скобками обозначены град или гололедные отложения с указанием их диаметра в мм.
Облачность - указаны через наклонную черту общая и нижняя облачность в баллах и высота нижней границы облаков в метрах; квадратными скобками обозначены формы облаков: Ci - перистые, Cs - перисто-слоистые, Cc - перисто-кучевые, Ac - высококучевые, As - высокослоистые, Sc - слоисто-кучевые, Ns - слоисто-дождевые, Cu - кучевые, Cb - кучево-дождевые. Подробнее классификацию облаков см. в Атласе облаков (PDF).
T - Температура воздуха - температура, измеренная на высоте 2 м над землей.
Td - Температура точки росы - температура, при понижении до которой содержащийся в воздухе водяной пар достигнет насыщения.
f - Относительная влажность воздуха - влажноcть воздуха, измеренная на высоте 2 м над землей.
Te - Эффективная температура - температура, которую ощущает одетый по сезону человек в тени. Характеристика душности погоды. При расчете учитывается влияние влажности воздуха и скорости ветра на теплоощущения человека.
Tes - Эффективная температура на солнце - температура, которую ощущает человек, с поправкой на солнечный нагрев. Характеристика знойности погоды. Зависит от высоты солнца над горизонтом, облачности и скорости ветра. Ночью, в пасмурную погоду, а также при ветре 12 м/с и более поправка равна нулю.
P - Атмосферное давление - приведенное к уровню моря атмосферное давление.
Po - Атмосферное давление - измеренное на уровне метеостанции атмосферное давление.
Tmin - Минимальная температура - минимум температуры воздуха на высоте 2 м над землей.
Tmax - Максимальная температура - максимум температуры воздуха на высоте 2 м над землей.
R - Количество осадков - Количество выпавших осадков за период времени, мм. При наведении курсора мыши на число - период времени, за который выпало указанное количество осадков.
R24 - Количество осадков - Количество выпавших осадков за 24 часа, мм.
S - Снежный покров - Высота снежного покрова, см. При наведении курсора мыши на число - состояние снежного покрова и степень покрытия местности в баллах.